sat.trackr.live / text

‹ back to catalog

STARLINK-5509

NORAD 57263 · 2023-094AX

PAYLOAD ACTIVE UNKNOWN

§ Identity

Operator
Country
US
Launch date
2023-07-07
Launch site
AFWTR
Launch vehicle
Mass (kg)
RCS (m²)

Purposes: comms

External: N2YO · Heavens-Above · Gunter

§ Orbital elements

Epoch: 2026-09-20T07:44:42.736704Z

Period
94.27 min
Inclination
43.0022°
Eccentricity
0.0001496
Mean motion
15.27575867 rev/d
Perigee alt
482.0 km
Apogee alt
484.1 km
Semi-major
6,861.2 km
B*
9.9975e-6
RAAN
11.4015°
Arg perigee
271.4421°
Mean anomaly
88.6260°
Rev number
17,688

§ Raw data

STARLINK-55091 57263U 23094AX  26263.32271686  .00000013  00000+0  99975-5 0  99922 57263  43.0022  11.4015 0001496 271.4421  88.6260 15.27575867176882

JSON: /api/v1/satellites/57263 · /tle

For live sub-satellite position, see the globe view (requires WebGL).

§ Visibility from observer

Set your observer location to see the next 7 days of passes ≥ 10°. The values pass through the URL so the page stays shareable.

No JS? Fill the form by hand. The geolocation button needs JavaScript.